| time (UTC) | temp C | wind direction | speed KPH | gust KPH | rain 1hr cm | rain 24hr cm | rain mn cm | humidity % | barometer mb |
| 20260507002219 | 12 | 111 | 3.2 | 4.8 | 0.00 | 0.03 | 0.03 | 80 | 1022.6 |
| 20260507001715 | 12 | 164 | 3.2 | 4.8 | 0.00 | 0.03 | 0.03 | 80 | 1022.6 |
| 20260507001213 | 12 | 116 | 1.6 | 4.8 | 0.00 | 0.03 | 0.03 | 80 | 1022.6 |
| 20260507000709 | 12 | 110 | 0.0 | 3.2 | 0.00 | 0.03 | 0.03 | 80 | 1022.3 |
| 20260507000205 | 12 | 181 | 1.6 | 3.2 | 0.00 | 0.03 | 0.03 | 80 | 1022.6 |
| 20260506235702 | 12 | 117 | 0.0 | 1.6 | 0.00 | 0.03 | 0.03 | 81 | 1022.3 |
| 20260506235157 | 13 | 117 | 3.2 | 4.8 | 0.00 | 0.03 | 0.03 | 80 | 1022.3 |
| 20260506234654 | 12 | 128 | 0.0 | 6.4 | 0.00 | 0.03 | 0.03 | 81 | 1022.3 |
| 20260506234151 | 12 | 107 | 0.0 | 3.2 | 0.00 | 0.03 | 0.03 | 81 | 1022.6 |
| 20260506233649 | 13 | 95 | 0.0 | 4.8 | 0.00 | 0.03 | 0.03 | 80 | 1022.6 |
| 20260506233145 | 12 | 101 | 0.0 | 3.2 | 0.00 | 0.03 | 0.03 | 81 | 1022.6 |
| 20260506232642 | 12 | 130 | 0.0 | 4.8 | 0.00 | 0.03 | 0.03 | 81 | 1022.6 |
| 20260506232137 | 12 | 103 | 1.6 | 1.6 | 0.00 | 0.03 | 0.03 | 81 | 1022.6 |
| 20260506231634 | 13 | 102 | 0.0 | 1.6 | 0.00 | 0.03 | 0.03 | 81 | 1022.6 |
| 20260506231133 | 12 | 121 | 1.6 | 1.6 | 0.00 | 0.03 | 0.03 | 81 | 1022.6 |
| 20260506230629 | 12 | 122 | 0.0 | 3.2 | 0.00 | 0.03 | 0.03 | 81 | 1022.6 |
| 20260506230126 | 12 | 130 | 1.6 | 3.2 | 0.00 | 0.03 | 0.03 | 80 | 1022.6 |
| 20260506225623 | 12 | 107 | 1.6 | 1.6 | 0.00 | 0.03 | 0.03 | 80 | 1022.6 |
| 20260506225119 | 12 | 111 | 1.6 | 3.2 | 0.00 | 0.03 | 0.03 | 81 | 1022.6 |
| 20260506224616 | 12 | 181 | 3.2 | 6.4 | 0.00 | 0.03 | 0.03 | 81 | 1022.6 |
| 20260506224113 | 12 | 104 | 0.0 | 1.6 | 0.00 | 0.03 | 0.03 | 81 | 1022.6 |
| 20260506223609 | 12 | 99 | 0.0 | 4.8 | 0.00 | 0.03 | 0.03 | 82 | 1022.6 |
| 20260506223105 | 12 | 103 | 3.2 | 6.4 | 0.00 | 0.03 | 0.03 | 83 | 1022.6 |
| 20260506222602 | 12 | 115 | 3.2 | 4.8 | 0.00 | 0.03 | 0.03 | 83 | 1022.6 |
| 20260506222059 | 12 | 121 | 3.2 | 6.4 | 0.00 | 0.03 | 0.03 | 83 | 1022.6 |
| 20260506221556 | 12 | 142 | 1.6 | 9.7 | 0.00 | 0.03 | 0.03 | 84 | 1022.6 |
| 20260506221054 | 12 | 175 | 8.0 | 11.3 | 0.00 | 0.03 | 0.03 | 82 | 1022.6 |
| 20260506220550 | 12 | 93 | 0.0 | 1.6 | 0.00 | 0.03 | 0.03 | 82 | 1022.6 |
| 20260506220045 | 12 | 112 | 1.6 | 1.6 | 0.00 | 0.03 | 0.03 | 82 | 1022.9 |
| 20260506215543 | 12 | 140 | 3.2 | 4.8 | 0.00 | 0.03 | 0.03 | 80 | 1022.9 |
| 20260506215038 | 13 | 108 | 0.0 | 0.0 | 0.00 | 0.03 | 0.03 | 77 | 1022.6 |
| 20260506214535 | 13 | 293 | 0.0 | 1.6 | 0.00 | 0.03 | 0.03 | 76 | 1022.6 |
| 20260506214033 | 13 | 125 | 0.0 | 3.2 | 0.00 | 0.03 | 0.03 | 76 | 1022.6 |
| 20260506213531 | 13 | 146 | 1.6 | 3.2 | 0.00 | 0.03 | 0.03 | 76 | 1022.6 |
| 20260506213028 | 13 | 214 | 1.6 | 3.2 | 0.00 | 0.03 | 0.03 | 77 | 1022.9 |
| 20260506212524 | 13 | 125 | 0.0 | 1.6 | 0.00 | 0.03 | 0.03 | 79 | 1022.9 |
| 20260506212019 | 12 | 23 | 3.2 | 4.8 | 0.00 | 0.03 | 0.03 | 78 | 1022.9 |
| 20260506211515 | 12 | 73 | 0.0 | 3.2 | 0.00 | 0.03 | 0.03 | 79 | 1022.9 |
| 20260506211013 | 12 | 81 | 4.8 | 6.4 | 0.00 | 0.03 | 0.03 | 80 | 1022.6 |
| 20260506210509 | 12 | 302 | 0.0 | 3.2 | 0.00 | 0.03 | 0.03 | 81 | 1022.6 |
| 20260506210006 | 12 | 162 | 1.6 | 3.2 | 0.00 | 0.03 | 0.03 | 82 | 1022.6 |
| 20260506205502 | 12 | 73 | 3.2 | 4.8 | 0.00 | 0.03 | 0.03 | 83 | 1022.3 |
| 20260506204957 | 12 | 246 | 0.0 | 1.6 | 0.00 | 0.03 | 0.03 | 84 | 1022.6 |
| 20260506204455 | 12 | 262 | 1.6 | 1.6 | 0.00 | 0.03 | 0.03 | 86 | 1022.6 |
| 20260506203947 | 11 | 43 | 3.2 | 4.8 | 0.00 | 0.03 | 0.03 | 86 | 1022.3 |
| 20260506203444 | 11 | 121 | 0.0 | 4.8 | 0.00 | 0.03 | 0.03 | 87 | 1022.6 |
| 20260506202941 | 12 | 168 | 1.6 | 4.8 | 0.00 | 0.03 | 0.03 | 88 | 1022.6 |
| 20260506202438 | 11 | 99 | 0.0 | 1.6 | 0.00 | 0.03 | 0.03 | 89 | 1022.6 |
| 20260506201935 | 11 | 39 | 3.2 | 4.8 | 0.00 | 0.03 | 0.03 | 89 | 1022.6 |
| 20260506201432 | 11 | 105 | 0.0 | 4.8 | 0.00 | 0.03 | 0.03 | 90 | 1022.6 |
| 20260506200929 | 11 | 90 | 1.6 | 4.8 | 0.00 | 0.03 | 0.03 | 89 | 1022.6 |
| 20260506200425 | 11 | 124 | 1.6 | 3.2 | 0.00 | 0.03 | 0.03 | 90 | 1022.6 |
| 20260506195922 | 11 | 64 | 0.0 | 4.8 | 0.00 | 0.03 | 0.03 | 90 | 1022.3 |
| 20260506195419 | 11 | 254 | 3.2 | 3.2 | 0.00 | 0.03 | 0.03 | 90 | 1022.3 |
| 20260506194915 | 11 | 339 | 3.2 | 4.8 | 0.00 | 0.03 | 0.03 | 90 | 1022.3 |
| 20260506194413 | 11 | 289 | 4.8 | 6.4 | 0.00 | 0.03 | 0.03 | 90 | 1022.3 |
| 20260506193909 | 10 | 68 | 0.0 | 4.8 | 0.00 | 0.03 | 0.03 | 91 | 1022.3 |
| 20260506193407 | 10 | 121 | 0.0 | 4.8 | 0.00 | 0.03 | 0.03 | 91 | 1022.3 |
| 20260506192903 | 10 | 45 | 1.6 | 4.8 | 0.00 | 0.03 | 0.03 | 91 | 1022.3 |
| 20260506192400 | 10 | 126 | 1.6 | 4.8 | 0.00 | 0.03 | 0.03 | 92 | 1022.3 |
| 20260506191856 | 10 | 295 | 3.2 | 4.8 | 0.00 | 0.03 | 0.03 | 92 | 1022.3 |
| 20260506191353 | 10 | 24 | 3.2 | 4.8 | 0.00 | 0.03 | 0.03 | 92 | 1022.3 |
| 20260506190850 | 11 | 86 | 0.0 | 3.2 | 0.00 | 0.03 | 0.03 | 93 | 1021.9 |
| 20260506190346 | 10 | 114 | 0.0 | 3.2 | 0.00 | 0.03 | 0.03 | 93 | 1021.9 |
| 20260506185843 | 10 | 66 | 1.6 | 3.2 | 0.00 | 0.03 | 0.03 | 93 | 1021.9 |
| 20260506185340 | 10 | 34 | 3.2 | 4.8 | 0.00 | 0.03 | 0.03 | 93 | 1021.9 |
| 20260506184837 | 10 | 330 | 3.2 | 11.3 | 0.00 | 0.03 | 0.03 | 93 | 1021.9 |
| 20260506184334 | 10 | 97 | 1.6 | 1.6 | 0.00 | 0.03 | 0.03 | 93 | 1021.9 |
| 20260506183832 | 10 | 79 | 3.2 | 4.8 | 0.00 | 0.03 | 0.03 | 93 | 1021.9 |
| 20260506183327 | 10 | 158 | 3.2 | 4.8 | 0.00 | 0.03 | 0.03 | 93 | 1022.3 |
| 20260506182825 | 10 | 9 | 1.6 | 6.4 | 0.00 | 0.03 | 0.03 | 93 | 1021.9 |
| 20260506182321 | 10 | 95 | 0.0 | 4.8 | 0.00 | 0.03 | 0.03 | 93 | 1021.9 |
| 20260506181819 | 10 | 98 | 3.2 | 4.8 | 0.00 | 0.03 | 0.03 | 94 | 1021.9 |
| 20260506181317 | 10 | 48 | 3.2 | 3.2 | 0.00 | 0.03 | 0.03 | 94 | 1021.9 |
| 20260506180814 | 10 | 70 | 1.6 | 6.4 | 0.00 | 0.03 | 0.03 | 94 | 1021.9 |
| 20260506180310 | 10 | 81 | 3.2 | 9.7 | 0.00 | 0.03 | 0.03 | 94 | 1021.9 |
| 20260506175806 | 10 | 281 | 4.8 | 6.4 | 0.00 | 0.03 | 0.03 | 94 | 1021.9 |
| 20260506175306 | 10 | 66 | 0.0 | 3.2 | 0.00 | 0.03 | 0.03 | 94 | 1021.9 |
| 20260506174801 | 10 | 90 | 1.6 | 4.8 | 0.00 | 0.03 | 0.03 | 94 | 1021.6 |
| 20260506174258 | 10 | 17 | 3.2 | 4.8 | 0.00 | 0.03 | 0.03 | 94 | 1021.6 |
| 20260506173755 | 10 | 4 | 0.0 | 3.2 | 0.00 | 0.03 | 0.03 | 94 | 1021.6 |
| 20260506173252 | 10 | 4 | 0.0 | 3.2 | 0.00 | 0.03 | 0.03 | 94 | 1021.6 |
| 20260506172749 | 10 | 57 | 3.2 | 3.2 | 0.00 | 0.03 | 0.03 | 94 | 1021.6 |
| 20260506172245 | 10 | 98 | 0.0 | 3.2 | 0.00 | 0.03 | 0.03 | 95 | 1021.6 |
| 20260506171743 | 10 | 128 | 1.6 | 1.6 | 0.00 | 0.03 | 0.03 | 95 | 1021.6 |
| 20260506171240 | 10 | 75 | 1.6 | 3.2 | 0.00 | 0.03 | 0.03 | 95 | 1021.6 |
| 20260506170738 | 10 | 94 | 0.0 | 1.6 | 0.00 | 0.03 | 0.03 | 95 | 1021.3 |
| 20260506170234 | 10 | 100 | 0.0 | 4.8 | 0.00 | 0.03 | 0.03 | 95 | 1021.3 |
| 20260506165732 | 10 | 113 | 0.0 | 1.6 | 0.00 | 0.03 | 0.03 | 95 | 1020.9 |
| 20260506165229 | 10 | 86 | 0.0 | 3.2 | 0.00 | 0.03 | 0.03 | 95 | 1021.3 |
| 20260506164726 | 10 | 116 | 0.0 | 0.0 | 0.00 | 0.03 | 0.03 | 95 | 1021.3 |
| 20260506164223 | 10 | 104 | 0.0 | 0.0 | 0.00 | 0.03 | 0.03 | 95 | 1021.3 |
| 20260506163719 | 10 | 14 | 1.6 | 3.2 | 0.00 | 0.03 | 0.03 | 95 | 1021.3 |
| 20260506163209 | 10 | 297 | 3.2 | 4.8 | 0.18 | 0.03 | 0.03 | 95 | 1021.3 |
| 20260506162705 | 9 | 101 | 0.0 | 3.2 | 0.00 | 0.00 | 0.00 | 95 | 1021.3 |
| 20260506162203 | 10 | 94 | 0.0 | 1.6 | 0.00 | 0.00 | 0.00 | 95 | 1021.3 |
| 20260506161700 | 10 | 85 | 0.0 | 3.2 | 0.00 | 0.00 | 0.00 | 95 | 1021.6 |
| 20260506161156 | 10 | 74 | 3.2 | 6.4 | 0.00 | 0.00 | 0.00 | 95 | 1021.6 |
| 20260506160654 | 10 | 96 | 1.6 | 4.8 | 0.00 | 0.00 | 0.00 | 95 | 1021.6 |
| 20260506160151 | 10 | 103 | 0.0 | 0.0 | 0.00 | 0.00 | 0.00 | 95 | 1021.6 |
| 20260506155649 | 10 | 77 | 1.6 | 3.2 | 0.00 | 0.00 | 0.00 | 95 | 1021.6 |
| 20260506155146 | 10 | 80 | 1.6 | 3.2 | 0.00 | 0.00 | 0.00 | 95 | 1021.3 |
| 20260506153248 | 10 | 97 | 0.0 | 0.0 | 0.00 | 0.00 | 0.00 | 95 | 1021.3 |
| 20260506152745 | 10 | 109 | 0.0 | 0.0 | 0.00 | 0.00 | 0.00 | 95 | 1021.3 |
| 20260506152242 | 10 | 102 | 0.0 | 0.0 | 0.00 | 0.00 | 0.00 | 95 | 1020.9 |
| 20260506151741 | 10 | 99 | 0.0 | 0.0 | 0.00 | 0.00 | 0.00 | 95 | 1020.9 |
| 20260506151237 | 10 | 109 | 0.0 | 0.0 | 0.00 | 0.00 | 0.00 | 95 | 1020.9 |
| 20260506150734 | 10 | 105 | 0.0 | 1.6 | 0.00 | 0.00 | 0.00 | 95 | 1020.9 |
| 20260506150231 | 10 | 102 | 0.0 | 0.0 | 0.00 | 0.00 | 0.00 | 95 | 1020.9 |
| 20260506145728 | 10 | 100 | 0.0 | 1.6 | 0.00 | 0.00 | 0.00 | 95 | 1020.6 |
| 20260506145225 | 10 | 103 | 1.6 | 1.6 | 0.00 | 0.00 | 0.00 | 95 | 1020.9 |
| 20260506144722 | 10 | 106 | 1.6 | 1.6 | 0.00 | 0.00 | 0.00 | 95 | 1020.6 |
| 20260506144219 | 10 | 135 | 3.2 | 4.8 | 0.00 | 0.00 | 0.00 | 95 | 1020.6 |
| 20260506143716 | 10 | 118 | 1.6 | 1.6 | 0.00 | 0.00 | 0.00 | 95 | 1020.9 |
| 20260506143214 | 10 | 125 | 0.0 | 1.6 | 0.00 | 0.00 | 0.00 | 95 | 1020.9 |
| 20260506142713 | 10 | 103 | 0.0 | 1.6 | 0.00 | 0.00 | 0.00 | 95 | 1020.9 |
| 20260506142210 | 10 | 107 | 0.0 | 0.0 | 0.00 | 0.00 | 0.00 | 94 | 1020.9 |
| 20260506141708 | 10 | 109 | 0.0 | 1.6 | 0.00 | 0.00 | 0.00 | 94 | 1020.9 |
| 20260506141206 | 10 | 103 | 0.0 | 1.6 | 0.00 | 0.00 | 0.00 | 94 | 1020.9 |
| 20260506140703 | 10 | 138 | 0.0 | 1.6 | 0.00 | 0.00 | 0.00 | 94 | 1020.9 |
| 20260506140200 | 10 | 107 | 1.6 | 4.8 | 0.00 | 0.00 | 0.00 | 94 | 1020.6 |
| 20260506135657 | 10 | 108 | 3.2 | 4.8 | 0.00 | 0.00 | 0.00 | 94 | 1020.6 |
| 20260506135153 | 10 | 126 | 1.6 | 4.8 | 0.00 | 0.00 | 0.00 | 94 | 1020.6 |
| 20260506134650 | 10 | 116 | 1.6 | 1.6 | 0.00 | 0.00 | 0.00 | 94 | 1020.6 |
| 20260506134146 | 10 | 160 | 1.6 | 1.6 | 0.00 | 0.00 | 0.00 | 94 | 1020.6 |
| 20260506133643 | 10 | 112 | 0.0 | 1.6 | 0.00 | 0.00 | 0.00 | 93 | 1020.6 |
| 20260506133140 | 10 | 129 | 1.6 | 4.8 | 0.00 | 0.00 | 0.00 | 93 | 1020.6 |
| 20260506132637 | 10 | 107 | 1.6 | 1.6 | 0.00 | 0.00 | 0.00 | 93 | 1020.6 |
| 20260506132134 | 10 | 118 | 0.0 | 1.6 | 0.00 | 0.00 | 0.00 | 93 | 1020.2 |
| 20260506131632 | 10 | 106 | 0.0 | 0.0 | 0.00 | 0.00 | 0.00 | 93 | 1020.6 |
| 20260506131128 | 10 | 106 | 0.0 | 0.0 | 0.00 | 0.00 | 0.00 | 93 | 1020.6 |
| 20260506130625 | 10 | 106 | 0.0 | 0.0 | 0.00 | 0.00 | 0.00 | 93 | 1020.6 |
| 20260506130122 | 10 | 106 | 0.0 | 1.6 | 0.00 | 0.00 | 0.00 | 92 | 1020.6 |
| 20260506125620 | 10 | 105 | 1.6 | 1.6 | 0.00 | 0.00 | 0.00 | 92 | 1020.6 |
| 20260506125118 | 10 | 98 | 0.0 | 0.0 | 0.00 | 0.00 | 0.00 | 92 | 1020.6 |
| 20260506124615 | 10 | 97 | 0.0 | 1.6 | 0.00 | 0.00 | 0.00 | 92 | 1020.2 |
| 20260506124113 | 10 | 97 | 0.0 | 1.6 | 0.00 | 0.00 | 0.00 | 92 | 1020.2 |
| 20260506123610 | 10 | 97 | 0.0 | 1.6 | 0.00 | 0.00 | 0.00 | 92 | 1020.6 |
| 20260506123109 | 10 | 97 | 0.0 | 1.6 | 0.00 | 0.00 | 0.00 | 91 | 1020.6 |
| 20260506122605 | 10 | 97 | 0.0 | 0.0 | 0.00 | 0.00 | 0.00 | 91 | 1020.6 |
| 20260506122103 | 10 | 97 | 1.6 | 1.6 | 0.00 | 0.00 | 0.00 | 91 | 1020.2 |
| 20260506121601 | 10 | 97 | 0.0 | 0.0 | 0.00 | 0.00 | 0.00 | 91 | 1020.2 |
| 20260506121057 | 10 | 97 | 0.0 | 3.2 | 0.00 | 0.00 | 0.00 | 91 | 1020.2 |
| 20260506120555 | 10 | 88 | 0.0 | 0.0 | 0.00 | 0.00 | 0.00 | 91 | 1020.6 |
| 20260506120052 | 10 | 24 | 1.6 | 3.2 | 0.00 | 0.00 | 0.00 | 91 | 1020.2 |
| 20260506115550 | 10 | 100 | 0.0 | 0.0 | 0.00 | 0.00 | 0.00 | 91 | 1020.2 |
| 20260506115048 | 10 | 99 | 0.0 | 0.0 | 0.00 | 0.00 | 0.00 | 91 | 1020.2 |
| 20260506114545 | 10 | 98 | 0.0 | 0.0 | 0.00 | 0.00 | 0.00 | 91 | 1020.2 |
| 20260506114043 | 10 | 102 | 0.0 | 1.6 | 0.00 | 0.00 | 0.00 | 91 | 1020.2 |
| 20260506113541 | 10 | 81 | 0.0 | 1.6 | 0.00 | 0.00 | 0.00 | 91 | 1020.2 |
| 20260506113038 | 10 | 106 | 0.0 | 0.0 | 0.00 | 0.00 | 0.00 | 91 | 1020.2 |
| 20260506112534 | 10 | 106 | 0.0 | 0.0 | 0.00 | 0.00 | 0.00 | 91 | 1020.2 |
| 20260506112032 | 10 | 106 | 0.0 | 0.0 | 0.00 | 0.00 | 0.00 | 91 | 1020.2 |
| 20260506111530 | 10 | 106 | 0.0 | 0.0 | 0.00 | 0.00 | 0.00 | 91 | 1020.2 |
| 20260506111027 | 10 | 101 | 0.0 | 0.0 | 0.00 | 0.00 | 0.00 | 91 | 1020.2 |
| 20260506110524 | 10 | 97 | 0.0 | 0.0 | 0.00 | 0.00 | 0.00 | 91 | 1019.9 |
| 20260506110021 | 10 | 97 | 0.0 | 0.0 | 0.00 | 0.00 | 0.00 | 91 | 1019.9 |
| 20260506105517 | 10 | 118 | 0.0 | 0.0 | 0.00 | 0.00 | 0.00 | 91 | 1019.9 |
| 20260506105015 | 10 | 118 | 0.0 | 0.0 | 0.00 | 0.00 | 0.00 | 91 | 1019.9 |
| 20260506104513 | 10 | 116 | 0.0 | 1.6 | 0.00 | 0.00 | 0.00 | 90 | 1019.6 |
| 20260506104011 | 10 | 113 | 0.0 | 1.6 | 0.00 | 0.00 | 0.00 | 90 | 1019.6 |
| 20260506103507 | 10 | 123 | 0.0 | 1.6 | 0.00 | 0.00 | 0.00 | 90 | 1019.6 |
| 20260506103004 | 10 | 140 | 3.2 | 3.2 | 0.00 | 0.00 | 0.00 | 90 | 1019.6 |
| 20260506102503 | 10 | 130 | 0.0 | 0.0 | 0.00 | 0.00 | 0.00 | 90 | 1019.6 |
| 20260506101959 | 10 | 140 | 0.0 | 3.2 | 0.00 | 0.00 | 0.00 | 90 | 1019.6 |
| 20260506101455 | 10 | 124 | 0.0 | 0.0 | 0.00 | 0.00 | 0.00 | 91 | 1019.6 |
| 20260506100953 | 10 | 113 | 0.0 | 1.6 | 0.00 | 0.00 | 0.00 | 91 | 1019.6 |
| 20260506100451 | 10 | 139 | 1.6 | 3.2 | 0.00 | 0.00 | 0.00 | 91 | 1019.2 |
| 20260506095949 | 10 | 94 | 0.0 | 1.6 | 0.00 | 0.00 | 0.00 | 92 | 1019.2 |
| 20260506095448 | 10 | 166 | 0.0 | 1.6 | 0.00 | 0.00 | 0.00 | 92 | 1019.6 |
| 20260506094943 | 10 | 174 | 0.0 | 1.6 | 0.00 | 0.00 | 0.00 | 92 | 1019.6 |
| 20260506094441 | 10 | 175 | 1.6 | 3.2 | 0.00 | 0.00 | 0.00 | 92 | 1019.6 |
| 20260506093939 | 10 | 182 | 0.0 | 1.6 | 0.00 | 0.00 | 0.00 | 92 | 1019.6 |
| 20260506093437 | 10 | 145 | 0.0 | 0.0 | 0.00 | 0.00 | 0.00 | 92 | 1019.2 |
| 20260506092934 | 10 | 156 | 0.0 | 1.6 | 0.00 | 0.00 | 0.00 | 93 | 1019.2 |
| 20260506092432 | 10 | 147 | 0.0 | 3.2 | 0.00 | 0.00 | 0.00 | 93 | 1019.6 |
| 20260506091928 | 10 | 150 | 0.0 | 3.2 | 0.00 | 0.00 | 0.00 | 93 | 1019.2 |
| 20260506091427 | 10 | 149 | 0.0 | 1.6 | 0.00 | 0.00 | 0.00 | 93 | 1019.6 |
| 20260506090924 | 10 | 150 | 0.0 | 3.2 | 0.00 | 0.00 | 0.00 | 93 | 1019.2 |
| 20260506090421 | 10 | 96 | 0.0 | 1.6 | 0.00 | 0.00 | 0.00 | 93 | 1019.2 |
| 20260506085918 | 10 | 121 | 1.6 | 1.6 | 0.00 | 0.00 | 0.00 | 93 | 1019.2 |
| 20260506085414 | 9 | 113 | 1.6 | 1.6 | 0.00 | 0.00 | 0.00 | 93 | 1019.6 |
| 20260506084910 | 9 | 48 | 0.0 | 3.2 | 0.00 | 0.00 | 0.00 | 93 | 1019.6 |
| 20260506084408 | 9 | 112 | 0.0 | 1.6 | 0.00 | 0.00 | 0.00 | 93 | 1019.2 |
| 20260506083904 | 9 | 114 | 0.0 | 0.0 | 0.00 | 0.00 | 0.00 | 93 | 1019.2 |
| 20260506083402 | 8 | 98 | 0.0 | 0.0 | 0.00 | 0.00 | 0.00 | 93 | 1019.6 |
| 20260506082859 | 8 | 96 | 0.0 | 0.0 | 0.00 | 0.00 | 0.00 | 93 | 1019.2 |
| 20260506082355 | 8 | 85 | 0.0 | 0.0 | 0.00 | 0.00 | 0.00 | 93 | 1019.2 |
| 20260506081851 | 8 | 89 | 0.0 | 1.6 | 0.00 | 0.00 | 0.00 | 93 | 1019.2 |
| 20260506081349 | 8 | 98 | 0.0 | 0.0 | 0.00 | 0.00 | 0.00 | 93 | 1019.2 |
| 20260506080847 | 8 | 93 | 0.0 | 0.0 | 0.00 | 0.00 | 0.00 | 93 | 1019.2 |
| 20260506080344 | 8 | 93 | 0.0 | 1.6 | 0.00 | 0.00 | 0.00 | 93 | 1019.2 |
| 20260506073322 | 8 | 147 | 0.0 | 0.0 | 0.00 | 0.00 | 0.00 | 92 | 1018.9 |
| 20260506072818 | 8 | 107 | 0.0 | 0.0 | 0.00 | 0.00 | 0.00 | 92 | 1018.5 |
| 20260506072316 | 9 | 123 | 0.0 | 0.0 | 0.00 | 0.00 | 0.00 | 91 | 1018.5 |
| 20260506071814 | 9 | 129 | 0.0 | 1.6 | 0.00 | 0.00 | 0.00 | 91 | 1018.5 |
| 20260506071312 | 9 | 75 | 1.6 | 3.2 | 0.00 | 0.00 | 0.00 | 91 | 1018.9 |
| 20260506070808 | 9 | 74 | 0.0 | 1.6 | 0.00 | 0.00 | 0.00 | 91 | 1018.5 |
| 20260506070305 | 9 | 98 | 0.0 | 1.6 | 0.00 | 0.00 | 0.00 | 91 | 1018.5 |
| 20260506062242 | 10 | 50 | 0.0 | 4.8 | 0.00 | 0.00 | 0.00 | 90 | 1018.5 |
| 20260506061738 | 10 | 318 | 1.6 | 6.4 | 0.00 | 0.00 | 0.00 | 90 | 1018.5 |
| 20260506061235 | 10 | 125 | 0.0 | 3.2 | 0.00 | 0.00 | 0.00 | 90 | 1018.5 |
| 20260506060733 | 10 | 317 | 1.6 | 1.6 | 0.00 | 0.00 | 0.00 | 90 | 1018.5 |
| 20260506060230 | 10 | 95 | 3.2 | 3.2 | 0.00 | 0.00 | 0.00 | 90 | 1018.5 |
| 20260506051156 | 10 | 70 | 1.6 | 11.3 | 0.00 | 0.00 | 0.00 | 89 | 1018.2 |
| 20260506050655 | 10 | 64 | 1.6 | 1.6 | 0.00 | 0.00 | 0.00 | 88 | 1018.2 |
| 20260506050152 | 10 | 1 | 1.6 | 3.2 | 0.00 | 0.00 | 0.00 | 88 | 1018.5 |
| 20260506044643 | 10 | 54 | 1.6 | 6.4 | 0.00 | 0.00 | 0.00 | 88 | 1018.2 |
| 20260506044140 | 10 | 45 | 1.6 | 3.2 | 0.00 | 0.00 | 0.00 | 88 | 1018.2 |
| 20260506043637 | 10 | 161 | 1.6 | 3.2 | 0.00 | 0.00 | 0.00 | 87 | 1018.2 |
| 20260506043135 | 10 | 232 | 1.6 | 3.2 | 0.00 | 0.00 | 0.00 | 87 | 1018.2 |
| 20260506042634 | 10 | 107 | 0.0 | 1.6 | 0.00 | 0.00 | 0.00 | 87 | 1018.2 |
| 20260506042131 | 10 | 2 | 0.0 | 1.6 | 0.00 | 0.00 | 0.00 | 87 | 1017.9 |
| 20260506041630 | 10 | 113 | 0.0 | 1.6 | 0.00 | 0.00 | 0.00 | 87 | 1017.9 |
| 20260506041126 | 10 | 127 | 0.0 | 1.6 | 0.00 | 0.00 | 0.00 | 86 | 1017.9 |
| 20260506040624 | 11 | 108 | 0.0 | 0.0 | 0.00 | 0.00 | 0.00 | 86 | 1017.9 |
| 20260506040120 | 11 | 60 | 0.0 | 1.6 | 0.00 | 0.00 | 0.00 | 86 | 1017.5 |
| 20260506035617 | 11 | 138 | 0.0 | 3.2 | 0.00 | 0.00 | 0.00 | 85 | 1017.5 |
| 20260506035114 | 11 | 261 | 0.0 | 1.6 | 0.00 | 0.00 | 0.00 | 85 | 1017.9 |
| 20260506034611 | 11 | 96 | 0.0 | 1.6 | 0.00 | 0.00 | 0.00 | 85 | 1017.5 |
| 20260506034108 | 11 | 122 | 0.0 | 1.6 | 0.00 | 0.00 | 0.00 | 84 | 1017.5 |
| 20260506033605 | 11 | 99 | 0.0 | 1.6 | 0.00 | 0.00 | 0.00 | 84 | 1017.5 |
| 20260506033102 | 11 | 142 | 0.0 | 0.0 | 0.00 | 0.00 | 0.00 | 83 | 1017.5 |
| 20260506032600 | 12 | 156 | 0.0 | 1.6 | 0.00 | 0.00 | 0.00 | 82 | 1017.2 |
| 20260506032056 | 12 | 105 | 0.0 | 1.6 | 0.00 | 0.00 | 0.00 | 82 | 1017.2 |
| 20260506031554 | 12 | 133 | 0.0 | 1.6 | 0.00 | 0.00 | 0.00 | 82 | 1017.5 |
| 20260506031050 | 12 | 56 | 1.6 | 1.6 | 0.00 | 0.00 | 0.00 | 81 | 1017.5 |
| 20260506030549 | 12 | 110 | 0.0 | 1.6 | 0.00 | 0.00 | 0.00 | 81 | 1017.5 |
| 20260506030046 | 12 | 117 | 0.0 | 1.6 | 0.00 | 0.00 | 0.00 | 80 | 1017.2 |
| 20260506025543 | 12 | 109 | 0.0 | 1.6 | 0.00 | 0.00 | 0.00 | 80 | 1017.5 |
| 20260506025038 | 12 | 75 | 1.6 | 4.8 | 0.00 | 0.00 | 0.00 | 80 | 1017.2 |
| 20260506024536 | 12 | 326 | 3.2 | 3.2 | 0.00 | 0.00 | 0.00 | 79 | 1017.5 |
| 20260506024032 | 13 | 98 | 0.0 | 1.6 | 0.00 | 0.00 | 0.00 | 79 | 1017.2 |
| 20260506023528 | 13 | 128 | 0.0 | 1.6 | 0.00 | 0.00 | 0.00 | 79 | 1017.5 |
| 20260506023026 | 13 | 71 | 1.6 | 3.2 | 0.00 | 0.00 | 0.00 | 78 | 1017.5 |
| 20260506022523 | 13 | 149 | 1.6 | 1.6 | 0.00 | 0.00 | 0.00 | 78 | 1017.5 |
| 20260506022021 | 13 | 110 | 0.0 | 4.8 | 0.00 | 0.00 | 0.00 | 78 | 1017.5 |
| 20260506021518 | 13 | 262 | 1.6 | 3.2 | 0.00 | 0.00 | 0.00 | 78 | 1017.2 |
| 20260506021015 | 13 | 7 | 1.6 | 4.8 | 0.00 | 0.00 | 0.00 | 78 | 1017.5 |
| 20260506020513 | 13 | 338 | 1.6 | 11.3 | 0.00 | 0.00 | 0.00 | 78 | 1017.5 |
| 20260506020010 | 13 | 317 | 3.2 | 4.8 | 0.00 | 0.00 | 0.00 | 77 | 1017.2 |
| 20260506015507 | 14 | 258 | 3.2 | 4.8 | 0.00 | 0.00 | 0.00 | 76 | 1017.2 |
| 20260506015004 | 14 | 48 | 1.6 | 6.4 | 0.00 | 0.00 | 0.00 | 75 | 1017.5 |
| 20260506014502 | 15 | 29 | 1.6 | 6.4 | 0.00 | 0.00 | 0.00 | 74 | 1017.5 |
| 20260506013957 | 15 | 69 | 1.6 | 4.8 | 0.00 | 0.00 | 0.00 | 74 | 1017.5 |
| 20260506013455 | 15 | 52 | 3.2 | 6.4 | 0.00 | 0.00 | 0.00 | 74 | 1017.5 |
| 20260506012951 | 15 | 83 | 1.6 | 11.3 | 0.00 | 0.00 | 0.00 | 74 | 1017.5 |
| 20260506012448 | 15 | 301 | 6.4 | 6.4 | 0.00 | 0.00 | 0.00 | 74 | 1017.5 |
| 20260506011945 | 15 | 102 | 1.6 | 4.8 | 0.00 | 0.00 | 0.00 | 74 | 1017.5 |
| 20260506011442 | 15 | 210 | 4.8 | 4.8 | 0.00 | 0.00 | 0.00 | 73 | 1017.5 |
| 20260506010939 | 15 | 110 | 1.6 | 9.7 | 0.00 | 0.00 | 0.00 | 74 | 1017.5 |
| 20260506010438 | 15 | 128 | 3.2 | 6.4 | 0.00 | 0.00 | 0.00 | 73 | 1017.5 |
| 20260506005933 | 15 | 354 | 3.2 | 4.8 | 0.00 | 0.00 | 0.00 | 73 | 1017.2 |
| 20260506005432 | 15 | 9 | 3.2 | 9.7 | 0.00 | 0.00 | 0.00 | 72 | 1017.5 |
| 20260506004926 | 15 | 297 | 6.4 | 12.9 | 0.00 | 0.00 | 0.00 | 73 | 1017.2 |
| 20260506004425 | 16 | 121 | 0.0 | 9.7 | 0.00 | 0.00 | 0.00 | 71 | 1017.5 |
| 20260506003920 | 16 | 321 | 3.2 | 6.4 | 0.00 | 0.00 | 0.00 | 70 | 1017.5 |
| 20260506003417 | 16 | 92 | 0.0 | 6.4 | 0.00 | 0.00 | 0.00 | 71 | 1017.5 |
| 20260506002914 | 15 | 73 | 1.6 | 4.8 | 0.00 | 0.00 | 0.00 | 71 | 1017.5 |